Regional Weather Roundup
Issued by NWS Sioux Falls, SD

Home | Current Version | Previous Version | Text Only | Print | Product List | Glossary Off
Versions: 1 2 3 4 5 6 7 8 9 10 11 12 13 14 15 16 17 18 19 20 21 22 23 24 25 26 27 28 29 30 31 32 33 34 35 36 37 38 39 40 41 42 43 44 45 46 47 48 49 50

000
ASUS43 KFSD 210402
RWRFSD

WEATHER ROUNDUP FOR SE SOUTH DAKOTA/SW MINNESOTA/NW IOWA
NATIONAL WEATHER SERVICE SIOUX FALLS SD
1000 PM CST MON FEB 20 2017

NOTE: "FAIR" INDICATES FEW OR NO CLOUDS BELOW 12,000 FEET WITH NO
SIGNIFICANT WEATHER AND OR OBSTRUCTIONS TO VISIBILITY.


SDZ038>040-050-052>070-210500-
SOUTHEAST SOUTH DAKOTA

CITY           SKY/WX    TMP DP  RH WIND       PRES   REMARKS
BROOKINGS      CLEAR     37  36  96 CALM      29.86R
CHAMBERLAIN    CLEAR     39  32  76 SE5       29.85F
HURON          CLEAR     35  35 100 S6        29.86R
MADISON        FAIR      39  39 100 CALM      29.88R
MITCHELL       CLEAR     37  34  89 S3        29.88S
SIOUX FALLS    CLEAR     38  37  97 CALM      29.90R
WINNER         FAIR      45  28  51 S10       29.85F
YANKTON        CLEAR     39  36  87 SW7       29.91R
$$

MNZ071-072-080-081-089-090-097-098-210500-
SOUTHWEST MINNESOTA

CITY           SKY/WX    TMP DP  RH WIND       PRES   REMARKS
FAIRMONT       CLEAR     44  40  85 W14       29.86R
JACKSON        CLEAR     41  37  87 W12       29.87S
LUVERNE        CLEAR     36  34  93 W5        29.89S
MARSHALL       CLEAR     39  37  92 W10       29.86R
MONTEVIDEO     CLEAR     37  37 100 W5        29.85S
PIPESTONE      CLEAR     39  34  81 W8        29.87S
REDWOOD FALLS  CLEAR     39  36  89 W10       29.83R
TRACY          CLEAR     43  40  89 W7        29.85S
WINDOM         CLEAR     39  37  93 W8        29.86R
WORTHINGTON    CLEAR     39  37  92 W8        29.88R
$$

IAZ001>003-012>014-020>022-031-032-NEZ013-014-SDZ071-210500-
NORTHWEST IOWA

CITY           SKY/WX    TMP DP  RH WIND       PRES   REMARKS
CHEROKEE       CLEAR     40  40 100 CALM      29.91S
DENISON        CLEAR     43  41  93 CALM      29.91R
ESTHERVILLE    CLEAR     42  41  96 W13       29.87R
LE MARS        CLEAR     37  36  93 SW5       29.92R
SHELDON        CLEAR     41  41 100 SW5       29.88S
SIOUX CITY     CLEAR     41  39  93 SW3       29.92R
SPENCER        CLEAR     40  38  93 W10       29.89R
STORM LAKE     CLEAR     41  39  93 W10       29.91R
$$

ABBREVIATIONS USED IN REMARKS
   TC - TEMPERATURE IN CELSIUS
  WCI - WIND CHILL INDEX
   HX - HEAT INDEX
  VSB - VISIBILITY





USA.gov is the U.S. government's official web portal to all federal, state and local government web resources and services.